owner,sensor,date,latitude,longitude,relative_humidity,qcFlag 
LUMCON,ioos:station:LUMCON:101:1,2015-05-01T00:00:00Z,29.2533,-90.6633,71.4,1111122 
LUMCON,ioos:station:LUMCON:101:1,2015-05-01T00:15:00Z,29.2533,-90.6633,70.7,1111122 
LUMCON,ioos:station:LUMCON:101:1,2015-05-01T00:30:00Z,29.2533,-90.6633,71.1,1111122 
LUMCON,ioos:station:LUMCON:101:1,2015-05-01T00:45:00Z,29.2533,-90.6633,71.4,1111122 
LUMCON,ioos:station:LUMCON:101:1,2015-05-01T01:00:00Z,29.2533,-90.6633,72.6,1111122 
LUMCON,ioos:station:LUMCON:101:1,2015-05-01T01:15:00Z,29.2533,-90.6633,73.4,1111122 
LUMCON,ioos:station:LUMCON:101:1,2015-05-01T01:30:00Z,29.2533,-90.6633,74.5,1111122 
LUMCON,ioos:station:LUMCON:101:1,2015-05-01T01:45:00Z,29.2533,-90.6633,75.6,1111122 
LUMCON,ioos:station:LUMCON:101:1,2015-05-01T02:00:00Z,29.2533,-90.6633,75.9,1111122 
LUMCON,ioos:station:LUMCON:101:1,2015-05-01T02:15:00Z,29.2533,-90.6633,76.3,1111122 
LUMCON,ioos:station:LUMCON:101:1,2015-05-01T02:30:00Z,29.2533,-90.6633,78.4,1111122 
LUMCON,ioos:station:LUMCON:101:1,2015-05-01T02:45:00Z,29.2533,-90.6633,77.3,1111122 
LUMCON,ioos:station:LUMCON:101:1,2015-05-01T03:00:00Z,29.2533,-90.6633,78.1,1111122 
LUMCON,ioos:station:LUMCON:101:1,2015-05-01T03:15:00Z,29.2533,-90.6633,78.9,1111122 
LUMCON,ioos:station:LUMCON:101:1,2015-05-01T03:30:00Z,29.2533,-90.6633,80.0,1111122 
LUMCON,ioos:station:LUMCON:101:1,2015-05-01T03:45:00Z,29.2533,-90.6633,79.3,1111122 
LUMCON,ioos:station:LUMCON:101:1,2015-05-01T04:00:00Z,29.2533,-90.6633,79.6,1111122 
LUMCON,ioos:station:LUMCON:101:1,2015-05-01T04:15:00Z,29.2533,-90.6633,80.0,1111122 
LUMCON,ioos:station:LUMCON:101:1,2015-05-01T04:30:00Z,29.2533,-90.6633,79.4,1111122 
LUMCON,ioos:station:LUMCON:101:1,2015-05-01T04:45:00Z,29.2533,-90.6633,77.4,1111122 
LUMCON,ioos:station:LUMCON:101:1,2015-05-01T05:00:00Z,29.2533,-90.6633,78.4,1111122 
LUMCON,ioos:station:LUMCON:101:1,2015-05-01T05:15:00Z,29.2533,-90.6633,79.4,1111122 
LUMCON,ioos:station:LUMCON:101:1,2015-05-01T05:30:00Z,29.2533,-90.6633,78.5,1111122 
LUMCON,ioos:station:LUMCON:101:1,2015-05-01T05:45:00Z,29.2533,-90.6633,77.1,1111122 
LUMCON,ioos:station:LUMCON:101:1,2015-05-01T06:00:00Z,29.2533,-90.6633,77.3,1111122 
LUMCON,ioos:station:LUMCON:101:1,2015-05-01T06:15:00Z,29.2533,-90.6633,76.6,1111122 
LUMCON,ioos:station:LUMCON:101:1,2015-05-01T06:30:00Z,29.2533,-90.6633,75.3,1111122 
LUMCON,ioos:station:LUMCON:101:1,2015-05-01T06:45:00Z,29.2533,-90.6633,75.4,1111122 
LUMCON,ioos:station:LUMCON:101:1,2015-05-01T07:00:00Z,29.2533,-90.6633,75.5,1111122 
LUMCON,ioos:station:LUMCON:101:1,2015-05-01T07:15:00Z,29.2533,-90.6633,74.4,1111122 
LUMCON,ioos:station:LUMCON:101:1,2015-05-01T07:30:00Z,29.2533,-90.6633,73.9,1111122 
LUMCON,ioos:station:LUMCON:101:1,2015-05-01T07:45:00Z,29.2533,-90.6633,73.8,1111122 
LUMCON,ioos:station:LUMCON:101:1,2015-05-01T08:00:00Z,29.2533,-90.6633,72.8,1111122 
LUMCON,ioos:station:LUMCON:101:1,2015-05-01T08:30:00Z,29.2533,-90.6633,67.6,1111122 
LUMCON,ioos:station:LUMCON:101:1,2015-05-01T08:45:00Z,29.2533,-90.6633,65.1,1111122 
LUMCON,ioos:station:LUMCON:101:1,2015-05-01T09:00:00Z,29.2533,-90.6633,62.8,1111122 
LUMCON,ioos:station:LUMCON:101:1,2015-05-01T09:15:00Z,29.2533,-90.6633,61.3,1111122 
LUMCON,ioos:station:LUMCON:101:1,2015-05-01T09:30:00Z,29.2533,-90.6633,60.1,1111122 
LUMCON,ioos:station:LUMCON:101:1,2015-05-01T09:45:00Z,29.2533,-90.6633,59.1,1111122 
LUMCON,ioos:station:LUMCON:101:1,2015-05-01T10:00:00Z,29.2533,-90.6633,56.5,1111122 
LUMCON,ioos:station:LUMCON:101:1,2015-05-01T10:15:00Z,29.2533,-90.6633,56.8,1111122 
LUMCON,ioos:station:LUMCON:101:1,2015-05-01T10:30:00Z,29.2533,-90.6633,54.4,1111122 
LUMCON,ioos:station:LUMCON:101:1,2015-05-01T10:45:00Z,29.2533,-90.6633,56.3,1111122 
LUMCON,ioos:station:LUMCON:101:1,2015-05-01T11:00:00Z,29.2533,-90.6633,53.3,1111122 
LUMCON,ioos:station:LUMCON:101:1,2015-05-01T11:15:00Z,29.2533,-90.6633,52.5,1111122 
LUMCON,ioos:station:LUMCON:101:1,2015-05-01T11:30:00Z,29.2533,-90.6633,51.3,1111122 
LUMCON,ioos:station:LUMCON:101:1,2015-05-01T11:45:00Z,29.2533,-90.6633,49.7,1111122 
LUMCON,ioos:station:LUMCON:101:1,2015-05-01T12:00:00Z,29.2533,-90.6633,48.5,1111122 
LUMCON,ioos:station:LUMCON:101:1,2015-05-01T12:15:00Z,29.2533,-90.6633,51.1,1111122 
LUMCON,ioos:station:LUMCON:101:1,2015-05-01T12:30:00Z,29.2533,-90.6633,49.0,1111122 
LUMCON,ioos:station:LUMCON:101:1,2015-05-01T12:45:00Z,29.2533,-90.6633,47.7,1111122 
LUMCON,ioos:station:LUMCON:101:1,2015-05-01T13:00:00Z,29.2533,-90.6633,47.9,1111122 
LUMCON,ioos:station:LUMCON:101:1,2015-05-01T13:15:00Z,29.2533,-90.6633,45.3,1111122 
LUMCON,ioos:station:LUMCON:101:1,2015-05-01T13:30:00Z,29.2533,-90.6633,44.7,1111122 
LUMCON,ioos:station:LUMCON:101:1,2015-05-01T13:45:00Z,29.2533,-90.6633,38.8,1111122 
LUMCON,ioos:station:LUMCON:101:1,2015-05-01T14:00:00Z,29.2533,-90.6633,40.3,1111122 
LUMCON,ioos:station:LUMCON:101:1,2015-05-01T14:15:00Z,29.2533,-90.6633,44.8,1111122 
LUMCON,ioos:station:LUMCON:101:1,2015-05-01T14:30:00Z,29.2533,-90.6633,43.1,1111122 
LUMCON,ioos:station:LUMCON:101:1,2015-05-01T14:45:00Z,29.2533,-90.6633,43.2,1111122 
LUMCON,ioos:station:LUMCON:101:1,2015-05-01T15:00:00Z,29.2533,-90.6633,46.8,1111122 
LUMCON,ioos:station:LUMCON:101:1,2015-05-01T15:15:00Z,29.2533,-90.6633,45.4,1111122 
LUMCON,ioos:station:LUMCON:101:1,2015-05-01T15:30:00Z,29.2533,-90.6633,48.1,1111122 
LUMCON,ioos:station:LUMCON:101:1,2015-05-01T15:45:00Z,29.2533,-90.6633,49.0,1111122 
LUMCON,ioos:station:LUMCON:101:1,2015-05-01T16:00:00Z,29.2533,-90.6633,50.9,1111122 
LUMCON,ioos:station:LUMCON:101:1,2015-05-01T16:15:00Z,29.2533,-90.6633,49.1,1111122 
LUMCON,ioos:station:LUMCON:101:1,2015-05-01T16:30:00Z,29.2533,-90.6633,52.5,1111122 
LUMCON,ioos:station:LUMCON:101:1,2015-05-01T16:45:00Z,29.2533,-90.6633,51.2,1111122 
LUMCON,ioos:station:LUMCON:101:1,2015-05-01T17:00:00Z,29.2533,-90.6633,47.5,1111122 
LUMCON,ioos:station:LUMCON:101:1,2015-05-01T17:15:00Z,29.2533,-90.6633,44.1,1111122 
LUMCON,ioos:station:LUMCON:101:1,2015-05-01T17:30:00Z,29.2533,-90.6633,47.5,1111122 
LUMCON,ioos:station:LUMCON:101:1,2015-05-01T17:45:00Z,29.2533,-90.6633,48.4,1111122 
LUMCON,ioos:station:LUMCON:101:1,2015-05-01T18:00:00Z,29.2533,-90.6633,48.8,1111122 
LUMCON,ioos:station:LUMCON:101:1,2015-05-01T18:15:00Z,29.2533,-90.6633,50.4,1111122 
LUMCON,ioos:station:LUMCON:101:1,2015-05-01T18:30:00Z,29.2533,-90.6633,50.7,1111122 
LUMCON,ioos:station:LUMCON:101:1,2015-05-01T18:45:00Z,29.2533,-90.6633,53.6,1111122 
LUMCON,ioos:station:LUMCON:101:1,2015-05-01T19:00:00Z,29.2533,-90.6633,57.4,1111122 
LUMCON,ioos:station:LUMCON:101:1,2015-05-01T19:15:00Z,29.2533,-90.6633,60.9,1111122 
LUMCON,ioos:station:LUMCON:101:1,2015-05-01T19:30:00Z,29.2533,-90.6633,63.7,1111122 
LUMCON,ioos:station:LUMCON:101:1,2015-05-01T19:45:00Z,29.2533,-90.6633,65.4,1111122 
LUMCON,ioos:station:LUMCON:101:1,2015-05-01T20:00:00Z,29.2533,-90.6633,65.7,1111122 
LUMCON,ioos:station:LUMCON:101:1,2015-05-01T20:15:00Z,29.2533,-90.6633,55.4,1111122 
LUMCON,ioos:station:LUMCON:101:1,2015-05-01T20:30:00Z,29.2533,-90.6633,57.6,1111122 
LUMCON,ioos:station:LUMCON:101:1,2015-05-01T20:45:00Z,29.2533,-90.6633,62.5,1111122 
LUMCON,ioos:station:LUMCON:101:1,2015-05-01T21:00:00Z,29.2533,-90.6633,66.1,1111122 
LUMCON,ioos:station:LUMCON:101:1,2015-05-01T21:15:00Z,29.2533,-90.6633,66.9,1111122 
LUMCON,ioos:station:LUMCON:101:1,2015-05-01T21:30:00Z,29.2533,-90.6633,68.4,1111122 
LUMCON,ioos:station:LUMCON:101:1,2015-05-01T21:45:00Z,29.2533,-90.6633,70.4,1111122 
LUMCON,ioos:station:LUMCON:101:1,2015-05-01T22:00:00Z,29.2533,-90.6633,69.0,1111122 
LUMCON,ioos:station:LUMCON:101:1,2015-05-01T22:15:00Z,29.2533,-90.6633,72.5,1111122 
LUMCON,ioos:station:LUMCON:101:1,2015-05-01T22:30:00Z,29.2533,-90.6633,75.6,1111122 
LUMCON,ioos:station:LUMCON:101:1,2015-05-01T22:45:00Z,29.2533,-90.6633,76.7,1111122 
LUMCON,ioos:station:LUMCON:101:1,2015-05-01T23:00:00Z,29.2533,-90.6633,76.9,1111122 
LUMCON,ioos:station:LUMCON:101:1,2015-05-01T23:15:00Z,29.2533,-90.6633,77.5,1111122 
LUMCON,ioos:station:LUMCON:101:1,2015-05-01T23:30:00Z,29.2533,-90.6633,80.5,1111122 
LUMCON,ioos:station:LUMCON:101:1,2015-05-01T23:45:00Z,29.2533,-90.6633,80.5,1111122 
LUMCON,ioos:station:LUMCON:101:1,2015-05-02T00:00:00Z,29.2533,-90.6633,80.2,1111122 
LUMCON,ioos:station:LUMCON:101:1,2015-05-02T00:15:00Z,29.2533,-90.6633,79.8,1111122 
LUMCON,ioos:station:LUMCON:101:1,2015-05-02T00:30:00Z,29.2533,-90.6633,78.6,1111122 
LUMCON,ioos:station:LUMCON:101:1,2015-05-02T00:45:00Z,29.2533,-90.6633,79.8,1111122 
LUMCON,ioos:station:LUMCON:101:1,2015-05-02T01:00:00Z,29.2533,-90.6633,78.3,1111122 
LUMCON,ioos:station:LUMCON:101:1,2015-05-02T01:15:00Z,29.2533,-90.6633,79.0,1111122 
LUMCON,ioos:station:LUMCON:101:1,2015-05-02T01:30:00Z,29.2533,-90.6633,77.2,1111122 
LUMCON,ioos:station:LUMCON:101:1,2015-05-02T01:45:00Z,29.2533,-90.6633,74.5,1111122 
LUMCON,ioos:station:LUMCON:101:1,2015-05-02T02:00:00Z,29.2533,-90.6633,73.7,1111122 
LUMCON,ioos:station:LUMCON:101:1,2015-05-02T02:15:00Z,29.2533,-90.6633,75.7,1111122 
LUMCON,ioos:station:LUMCON:101:1,2015-05-02T02:30:00Z,29.2533,-90.6633,76.7,1111122 
LUMCON,ioos:station:LUMCON:101:1,2015-05-02T02:45:00Z,29.2533,-90.6633,75.8,1111122 
LUMCON,ioos:station:LUMCON:101:1,2015-05-02T03:00:00Z,29.2533,-90.6633,78.7,1111122 
LUMCON,ioos:station:LUMCON:101:1,2015-05-02T03:15:00Z,29.2533,-90.6633,79.6,1111122 
LUMCON,ioos:station:LUMCON:101:1,2015-05-02T03:30:00Z,29.2533,-90.6633,78.4,1111122 
LUMCON,ioos:station:LUMCON:101:1,2015-05-02T03:45:00Z,29.2533,-90.6633,74.5,1111122 
LUMCON,ioos:station:LUMCON:101:1,2015-05-02T04:00:00Z,29.2533,-90.6633,77.6,1111122 
LUMCON,ioos:station:LUMCON:101:1,2015-05-02T04:15:00Z,29.2533,-90.6633,78.3,1111122 
LUMCON,ioos:station:LUMCON:101:1,2015-05-02T04:30:00Z,29.2533,-90.6633,80.2,1111122 
LUMCON,ioos:station:LUMCON:101:1,2015-05-02T04:45:00Z,29.2533,-90.6633,79.9,1111122 
LUMCON,ioos:station:LUMCON:101:1,2015-05-02T05:00:00Z,29.2533,-90.6633,81.2,1111122 
LUMCON,ioos:station:LUMCON:101:1,2015-05-02T05:15:00Z,29.2533,-90.6633,77.7,1111122 
LUMCON,ioos:station:LUMCON:101:1,2015-05-02T05:30:00Z,29.2533,-90.6633,77.8,1111122 
LUMCON,ioos:station:LUMCON:101:1,2015-05-02T05:45:00Z,29.2533,-90.6633,74.6,1111122 
LUMCON,ioos:station:LUMCON:101:1,2015-05-02T06:00:00Z,29.2533,-90.6633,76.5,1111122 
LUMCON,ioos:station:LUMCON:101:1,2015-05-02T06:15:00Z,29.2533,-90.6633,77.1,1111122 
LUMCON,ioos:station:LUMCON:101:1,2015-05-02T06:30:00Z,29.2533,-90.6633,77.6,1111122 
LUMCON,ioos:station:LUMCON:101:1,2015-05-02T06:45:00Z,29.2533,-90.6633,78.1,1111122 
LUMCON,ioos:station:LUMCON:101:1,2015-05-02T07:00:00Z,29.2533,-90.6633,78.0,1111122 
LUMCON,ioos:station:LUMCON:101:1,2015-05-02T07:15:00Z,29.2533,-90.6633,77.4,1111122 
LUMCON,ioos:station:LUMCON:101:1,2015-05-02T07:30:00Z,29.2533,-90.6633,75.9,1111122 
LUMCON,ioos:station:LUMCON:101:1,2015-05-02T07:45:00Z,29.2533,-90.6633,75.2,1111122 
LUMCON,ioos:station:LUMCON:101:1,2015-05-02T08:00:00Z,29.2533,-90.6633,76.0,1111122 
LUMCON,ioos:station:LUMCON:101:1,2015-05-02T08:15:00Z,29.2533,-90.6633,75.8,1111122 
LUMCON,ioos:station:LUMCON:101:1,2015-05-02T08:30:00Z,29.2533,-90.6633,73.6,1111122 
LUMCON,ioos:station:LUMCON:101:1,2015-05-02T08:45:00Z,29.2533,-90.6633,73.5,1111122 
LUMCON,ioos:station:LUMCON:101:1,2015-05-02T09:00:00Z,29.2533,-90.6633,72.0,1111122 
LUMCON,ioos:station:LUMCON:101:1,2015-05-02T09:15:00Z,29.2533,-90.6633,71.4,1111122 
LUMCON,ioos:station:LUMCON:101:1,2015-05-02T09:30:00Z,29.2533,-90.6633,71.5,1111122 
LUMCON,ioos:station:LUMCON:101:1,2015-05-02T09:45:00Z,29.2533,-90.6633,71.9,1111122 
LUMCON,ioos:station:LUMCON:101:1,2015-05-02T10:00:00Z,29.2533,-90.6633,67.8,1111122 
LUMCON,ioos:station:LUMCON:101:1,2015-05-02T10:15:00Z,29.2533,-90.6633,70.6,1111122 
LUMCON,ioos:station:LUMCON:101:1,2015-05-02T10:30:00Z,29.2533,-90.6633,70.8,1111122 
LUMCON,ioos:station:LUMCON:101:1,2015-05-02T10:45:00Z,29.2533,-90.6633,69.4,1111122 
LUMCON,ioos:station:LUMCON:101:1,2015-05-02T11:00:00Z,29.2533,-90.6633,64.3,1111122 
LUMCON,ioos:station:LUMCON:101:1,2015-05-02T11:15:00Z,29.2533,-90.6633,66.7,1111122 
LUMCON,ioos:station:LUMCON:101:1,2015-05-02T11:30:00Z,29.2533,-90.6633,66.0,1111122 
LUMCON,ioos:station:LUMCON:101:1,2015-05-02T11:45:00Z,29.2533,-90.6633,64.2,1111122 
LUMCON,ioos:station:LUMCON:101:1,2015-05-02T12:00:00Z,29.2533,-90.6633,58.3,1111122 
LUMCON,ioos:station:LUMCON:101:1,2015-05-02T12:15:00Z,29.2533,-90.6633,54.2,1111122 
LUMCON,ioos:station:LUMCON:101:1,2015-05-02T12:30:00Z,29.2533,-90.6633,58.5,1111122 
LUMCON,ioos:station:LUMCON:101:1,2015-05-02T12:45:00Z,29.2533,-90.6633,57.9,1111122 
LUMCON,ioos:station:LUMCON:101:1,2015-05-02T13:00:00Z,29.2533,-90.6633,60.1,1111122 
LUMCON,ioos:station:LUMCON:101:1,2015-05-02T13:15:00Z,29.2533,-90.6633,60.6,1111122 
LUMCON,ioos:station:LUMCON:101:1,2015-05-02T13:30:00Z,29.2533,-90.6633,62.3,1111122 
LUMCON,ioos:station:LUMCON:101:1,2015-05-02T13:45:00Z,29.2533,-90.6633,60.7,1111122 
LUMCON,ioos:station:LUMCON:101:1,2015-05-02T14:00:00Z,29.2533,-90.6633,59.6,1111122 
LUMCON,ioos:station:LUMCON:101:1,2015-05-02T14:15:00Z,29.2533,-90.6633,58.8,1111122 
LUMCON,ioos:station:LUMCON:101:1,2015-05-02T14:30:00Z,29.2533,-90.6633,54.8,1111122 
LUMCON,ioos:station:LUMCON:101:1,2015-05-02T14:45:00Z,29.2533,-90.6633,56.1,1111122 
LUMCON,ioos:station:LUMCON:101:1,2015-05-02T15:00:00Z,29.2533,-90.6633,55.2,1111122 
LUMCON,ioos:station:LUMCON:101:1,2015-05-02T15:15:00Z,29.2533,-90.6633,57.5,1111122 
LUMCON,ioos:station:LUMCON:101:1,2015-05-02T15:30:00Z,29.2533,-90.6633,58.1,1111122 
LUMCON,ioos:station:LUMCON:101:1,2015-05-02T15:45:00Z,29.2533,-90.6633,59.4,1111122 
LUMCON,ioos:station:LUMCON:101:1,2015-05-02T16:00:00Z,29.2533,-90.6633,58.0,1111122 
LUMCON,ioos:station:LUMCON:101:1,2015-05-02T16:15:00Z,29.2533,-90.6633,57.8,1111122 
LUMCON,ioos:station:LUMCON:101:1,2015-05-02T16:30:00Z,29.2533,-90.6633,59.1,1111122 
LUMCON,ioos:station:LUMCON:101:1,2015-05-02T16:45:00Z,29.2533,-90.6633,61.4,1111122 
LUMCON,ioos:station:LUMCON:101:1,2015-05-02T17:00:00Z,29.2533,-90.6633,58.3,1111122 
LUMCON,ioos:station:LUMCON:101:1,2015-05-02T17:15:00Z,29.2533,-90.6633,58.7,1111122 
LUMCON,ioos:station:LUMCON:101:1,2015-05-02T17:30:00Z,29.2533,-90.6633,57.8,1111122 
LUMCON,ioos:station:LUMCON:101:1,2015-05-02T17:45:00Z,29.2533,-90.6633,58.9,1111122 
LUMCON,ioos:station:LUMCON:101:1,2015-05-02T18:00:00Z,29.2533,-90.6633,53.6,1111122 
LUMCON,ioos:station:LUMCON:101:1,2015-05-02T18:15:00Z,29.2533,-90.6633,54.0,1111122 
LUMCON,ioos:station:LUMCON:101:1,2015-05-02T18:30:00Z,29.2533,-90.6633,55.2,1111122 
LUMCON,ioos:station:LUMCON:101:1,2015-05-02T18:45:00Z,29.2533,-90.6633,58.0,1111122 
LUMCON,ioos:station:LUMCON:101:1,2015-05-02T19:00:00Z,29.2533,-90.6633,59.0,1111122 
LUMCON,ioos:station:LUMCON:101:1,2015-05-02T19:15:00Z,29.2533,-90.6633,58.0,1111122 
LUMCON,ioos:station:LUMCON:101:1,2015-05-02T19:30:00Z,29.2533,-90.6633,59.4,1111122 
LUMCON,ioos:station:LUMCON:101:1,2015-05-02T19:45:00Z,29.2533,-90.6633,61.5,1111122 
LUMCON,ioos:station:LUMCON:101:1,2015-05-02T20:00:00Z,29.2533,-90.6633,66.4,1111122 
LUMCON,ioos:station:LUMCON:101:1,2015-05-02T20:15:00Z,29.2533,-90.6633,65.6,1111122 
LUMCON,ioos:station:LUMCON:101:1,2015-05-02T20:30:00Z,29.2533,-90.6633,65.1,1111122 
LUMCON,ioos:station:LUMCON:101:1,2015-05-02T20:45:00Z,29.2533,-90.6633,66.3,1111122 
LUMCON,ioos:station:LUMCON:101:1,2015-05-02T21:00:00Z,29.2533,-90.6633,64.6,1111122 
LUMCON,ioos:station:LUMCON:101:1,2015-05-02T21:15:00Z,29.2533,-90.6633,68.1,1111122 
LUMCON,ioos:station:LUMCON:101:1,2015-05-02T21:30:00Z,29.2533,-90.6633,66.2,1111122 
LUMCON,ioos:station:LUMCON:101:1,2015-05-02T21:45:00Z,29.2533,-90.6633,66.2,1111122 
LUMCON,ioos:station:LUMCON:101:1,2015-05-02T22:00:00Z,29.2533,-90.6633,69.8,1111122 
LUMCON,ioos:station:LUMCON:101:1,2015-05-02T22:15:00Z,29.2533,-90.6633,68.9,1111122 
LUMCON,ioos:station:LUMCON:101:1,2015-05-02T22:30:00Z,29.2533,-90.6633,67.4,1111122 
LUMCON,ioos:station:LUMCON:101:1,2015-05-02T22:45:00Z,29.2533,-90.6633,68.1,1111122 
LUMCON,ioos:station:LUMCON:101:1,2015-05-02T23:00:00Z,29.2533,-90.6633,65.9,1111122 
LUMCON,ioos:station:LUMCON:101:1,2015-05-02T23:15:00Z,29.2533,-90.6633,65.4,1111122 
LUMCON,ioos:station:LUMCON:101:1,2015-05-02T23:30:00Z,29.2533,-90.6633,65.3,1111122 
LUMCON,ioos:station:LUMCON:101:1,2015-05-02T23:45:00Z,29.2533,-90.6633,66.2,1111122 
LUMCON,ioos:station:LUMCON:101:1,2015-05-03T01:00:00Z,29.2533,-90.6633,66.0,1111122 
LUMCON,ioos:station:LUMCON:101:1,2015-05-03T01:15:00Z,29.2533,-90.6633,65.8,1111122 
LUMCON,ioos:station:LUMCON:101:1,2015-05-03T01:30:00Z,29.2533,-90.6633,64.9,1111122 
LUMCON,ioos:station:LUMCON:101:1,2015-05-03T01:45:00Z,29.2533,-90.6633,67.1,1111122 
LUMCON,ioos:station:LUMCON:101:1,2015-05-03T02:00:00Z,29.2533,-90.6633,64.9,1111122 
LUMCON,ioos:station:LUMCON:101:1,2015-05-03T02:15:00Z,29.2533,-90.6633,64.2,1111122 
LUMCON,ioos:station:LUMCON:101:1,2015-05-03T02:30:00Z,29.2533,-90.6633,67.0,1111122 
LUMCON,ioos:station:LUMCON:101:1,2015-05-03T02:45:00Z,29.2533,-90.6633,68.4,1111122 
LUMCON,ioos:station:LUMCON:101:1,2015-05-03T03:00:00Z,29.2533,-90.6633,65.0,1111122 
LUMCON,ioos:station:LUMCON:101:1,2015-05-03T03:15:00Z,29.2533,-90.6633,64.0,1111122 
LUMCON,ioos:station:LUMCON:101:1,2015-05-03T03:30:00Z,29.2533,-90.6633,68.1,1111122 
LUMCON,ioos:station:LUMCON:101:1,2015-05-03T03:45:00Z,29.2533,-90.6633,67.4,1111122 
LUMCON,ioos:station:LUMCON:101:1,2015-05-03T04:00:00Z,29.2533,-90.6633,65.5,1111122 
LUMCON,ioos:station:LUMCON:101:1,2015-05-03T04:15:00Z,29.2533,-90.6633,65.0,1111122 
LUMCON,ioos:station:LUMCON:101:1,2015-05-03T04:30:00Z,29.2533,-90.6633,65.1,1111122 
LUMCON,ioos:station:LUMCON:101:1,2015-05-03T04:45:00Z,29.2533,-90.6633,69.0,1111122 
LUMCON,ioos:station:LUMCON:101:1,2015-05-03T05:00:00Z,29.2533,-90.6633,71.3,1111122 
LUMCON,ioos:station:LUMCON:101:1,2015-05-03T05:15:00Z,29.2533,-90.6633,70.1,1111122 
LUMCON,ioos:station:LUMCON:101:1,2015-05-03T05:30:00Z,29.2533,-90.6633,72.2,1111122 
LUMCON,ioos:station:LUMCON:101:1,2015-05-03T05:45:00Z,29.2533,-90.6633,68.4,1111122 
LUMCON,ioos:station:LUMCON:101:1,2015-05-03T06:00:00Z,29.2533,-90.6633,70.5,1111122 
LUMCON,ioos:station:LUMCON:101:1,2015-05-03T06:15:00Z,29.2533,-90.6633,71.2,1111122 
LUMCON,ioos:station:LUMCON:101:1,2015-05-03T06:30:00Z,29.2533,-90.6633,68.8,1111122 
LUMCON,ioos:station:LUMCON:101:1,2015-05-03T06:45:00Z,29.2533,-90.6633,68.8,1111122 
LUMCON,ioos:station:LUMCON:101:1,2015-05-03T07:00:00Z,29.2533,-90.6633,67.6,1111122 
LUMCON,ioos:station:LUMCON:101:1,2015-05-03T07:15:00Z,29.2533,-90.6633,67.9,1111122 
LUMCON,ioos:station:LUMCON:101:1,2015-05-03T07:30:00Z,29.2533,-90.6633,68.0,1111122 
LUMCON,ioos:station:LUMCON:101:1,2015-05-03T07:45:00Z,29.2533,-90.6633,66.7,1111122 
LUMCON,ioos:station:LUMCON:101:1,2015-05-03T08:00:00Z,29.2533,-90.6633,64.7,1111122 
LUMCON,ioos:station:LUMCON:101:1,2015-05-03T08:15:00Z,29.2533,-90.6633,60.6,1111122 
LUMCON,ioos:station:LUMCON:101:1,2015-05-03T08:30:00Z,29.2533,-90.6633,57.5,1111122 
LUMCON,ioos:station:LUMCON:101:1,2015-05-03T08:45:00Z,29.2533,-90.6633,57.8,1111122 
LUMCON,ioos:station:LUMCON:101:1,2015-05-03T09:00:00Z,29.2533,-90.6633,56.1,1111122 
LUMCON,ioos:station:LUMCON:101:1,2015-05-03T09:15:00Z,29.2533,-90.6633,54.6,1111122 
LUMCON,ioos:station:LUMCON:101:1,2015-05-03T09:30:00Z,29.2533,-90.6633,55.7,1111122 
LUMCON,ioos:station:LUMCON:101:1,2015-05-03T09:45:00Z,29.2533,-90.6633,53.1,1111122 
LUMCON,ioos:station:LUMCON:101:1,2015-05-03T10:00:00Z,29.2533,-90.6633,53.5,1111122 
LUMCON,ioos:station:LUMCON:101:1,2015-05-03T10:15:00Z,29.2533,-90.6633,55.0,1111122 
LUMCON,ioos:station:LUMCON:101:1,2015-05-03T10:30:00Z,29.2533,-90.6633,56.0,1111122 
LUMCON,ioos:station:LUMCON:101:1,2015-05-03T10:45:00Z,29.2533,-90.6633,54.1,1111122 
LUMCON,ioos:station:LUMCON:101:1,2015-05-03T11:00:00Z,29.2533,-90.6633,57.2,1111122 
LUMCON,ioos:station:LUMCON:101:1,2015-05-03T11:15:00Z,29.2533,-90.6633,58.1,1111122 
LUMCON,ioos:station:LUMCON:101:1,2015-05-03T11:30:00Z,29.2533,-90.6633,55.3,1111122 
LUMCON,ioos:station:LUMCON:101:1,2015-05-03T11:45:00Z,29.2533,-90.6633,56.0,1111122 
LUMCON,ioos:station:LUMCON:101:1,2015-05-03T12:00:00Z,29.2533,-90.6633,55.3,1111122 
LUMCON,ioos:station:LUMCON:101:1,2015-05-03T12:15:00Z,29.2533,-90.6633,54.4,1111122 
LUMCON,ioos:station:LUMCON:101:1,2015-05-03T12:30:00Z,29.2533,-90.6633,51.8,1111122 
LUMCON,ioos:station:LUMCON:101:1,2015-05-03T12:45:00Z,29.2533,-90.6633,46.8,1111122 
LUMCON,ioos:station:LUMCON:101:1,2015-05-03T13:00:00Z,29.2533,-90.6633,48.1,1111122 
LUMCON,ioos:station:LUMCON:101:1,2015-05-03T13:15:00Z,29.2533,-90.6633,49.8,1111122 
LUMCON,ioos:station:LUMCON:101:1,2015-05-03T13:30:00Z,29.2533,-90.6633,51.7,1111122 
LUMCON,ioos:station:LUMCON:101:1,2015-05-03T13:45:00Z,29.2533,-90.6633,53.5,1111122 
LUMCON,ioos:station:LUMCON:101:1,2015-05-03T14:00:00Z,29.2533,-90.6633,51.9,1111122 
LUMCON,ioos:station:LUMCON:101:1,2015-05-03T14:15:00Z,29.2533,-90.6633,52.0,1111122 
LUMCON,ioos:station:LUMCON:101:1,2015-05-03T14:30:00Z,29.2533,-90.6633,52.1,1111122 
LUMCON,ioos:station:LUMCON:101:1,2015-05-03T14:45:00Z,29.2533,-90.6633,50.3,1111122 
LUMCON,ioos:station:LUMCON:101:1,2015-05-03T15:00:00Z,29.2533,-90.6633,49.7,1111122 
LUMCON,ioos:station:LUMCON:101:1,2015-05-03T15:15:00Z,29.2533,-90.6633,48.8,1111122 
LUMCON,ioos:station:LUMCON:101:1,2015-05-03T15:30:00Z,29.2533,-90.6633,49.2,1111122 
LUMCON,ioos:station:LUMCON:101:1,2015-05-03T15:45:00Z,29.2533,-90.6633,49.3,1111122 
LUMCON,ioos:station:LUMCON:101:1,2015-05-03T16:00:00Z,29.2533,-90.6633,49.3,1111122 
LUMCON,ioos:station:LUMCON:101:1,2015-05-03T16:15:00Z,29.2533,-90.6633,48.2,1111122 
LUMCON,ioos:station:LUMCON:101:1,2015-05-03T16:30:00Z,29.2533,-90.6633,48.8,1111122 
LUMCON,ioos:station:LUMCON:101:1,2015-05-03T16:45:00Z,29.2533,-90.6633,47.3,1111122 
LUMCON,ioos:station:LUMCON:101:1,2015-05-03T17:00:00Z,29.2533,-90.6633,50.4,1111122 
LUMCON,ioos:station:LUMCON:101:1,2015-05-03T17:15:00Z,29.2533,-90.6633,46.9,1111122 
LUMCON,ioos:station:LUMCON:101:1,2015-05-03T17:30:00Z,29.2533,-90.6633,47.9,1111122 
LUMCON,ioos:station:LUMCON:101:1,2015-05-03T17:45:00Z,29.2533,-90.6633,49.3,1111122 
LUMCON,ioos:station:LUMCON:101:1,2015-05-03T18:00:00Z,29.2533,-90.6633,48.5,1111122 
LUMCON,ioos:station:LUMCON:101:1,2015-05-03T18:15:00Z,29.2533,-90.6633,48.7,1111122 
LUMCON,ioos:station:LUMCON:101:1,2015-05-03T18:30:00Z,29.2533,-90.6633,49.1,1111122 
LUMCON,ioos:station:LUMCON:101:1,2015-05-03T18:45:00Z,29.2533,-90.6633,47.1,1111122 
LUMCON,ioos:station:LUMCON:101:1,2015-05-03T19:00:00Z,29.2533,-90.6633,51.7,1111122 
LUMCON,ioos:station:LUMCON:101:1,2015-05-03T19:15:00Z,29.2533,-90.6633,50.6,1111122 
LUMCON,ioos:station:LUMCON:101:1,2015-05-03T19:30:00Z,29.2533,-90.6633,47.6,1111122 
LUMCON,ioos:station:LUMCON:101:1,2015-05-03T19:45:00Z,29.2533,-90.6633,49.0,1111122 
LUMCON,ioos:station:LUMCON:101:1,2015-05-03T20:00:00Z,29.2533,-90.6633,52.1,1111122 
LUMCON,ioos:station:LUMCON:101:1,2015-05-03T20:15:00Z,29.2533,-90.6633,51.2,1111122 
LUMCON,ioos:station:LUMCON:101:1,2015-05-03T20:30:00Z,29.2533,-90.6633,49.3,1111122 
LUMCON,ioos:station:LUMCON:101:1,2015-05-03T20:45:00Z,29.2533,-90.6633,55.1,1111122 
LUMCON,ioos:station:LUMCON:101:1,2015-05-03T21:00:00Z,29.2533,-90.6633,52.5,1111122 
LUMCON,ioos:station:LUMCON:101:1,2015-05-03T21:15:00Z,29.2533,-90.6633,52.7,1111122 
LUMCON,ioos:station:LUMCON:101:1,2015-05-03T21:30:00Z,29.2533,-90.6633,57.5,1111122 
LUMCON,ioos:station:LUMCON:101:1,2015-05-03T21:45:00Z,29.2533,-90.6633,57.2,1111122 
LUMCON,ioos:station:LUMCON:101:1,2015-05-03T22:00:00Z,29.2533,-90.6633,57.3,1111122 
LUMCON,ioos:station:LUMCON:101:1,2015-05-03T22:15:00Z,29.2533,-90.6633,58.5,1111122 
LUMCON,ioos:station:LUMCON:101:1,2015-05-03T22:30:00Z,29.2533,-90.6633,57.6,1111122 
LUMCON,ioos:station:LUMCON:101:1,2015-05-03T22:45:00Z,29.2533,-90.6633,56.2,1111122 
LUMCON,ioos:station:LUMCON:101:1,2015-05-03T23:00:00Z,29.2533,-90.6633,57.6,1111122 
LUMCON,ioos:station:LUMCON:101:1,2015-05-03T23:15:00Z,29.2533,-90.6633,57.2,1111122 